STARLINK-30254 (57533 NORAD) Tracking and Keplerian Element Data

This shows tracking and keplerian element data for the satellite.

Feedback or suggestion? Click here.




ElementValue
Catalog57533
NameSTARLINK-30254
Epoch Orbit2587
Epoch Day13.25002315
Epoch Year2024
RAAN238.2588
Inclination42.9815
Eccentricity0.0002284
Argument of Perigee274.9948
Mean Anonmoly271.011
Mean Motion15.8193676
Decay Rate-0.00286243
L11 57533U 23115N 24013.25002315 -.00286243 00000+0 -14071-2 0 9994
L22 57533 42.9815 238.2588 0002284 274.9948 271.0110 15.81936760 25879



Live tracking and technical data element details for STARLINK-30254 (NORAD 57533). STARLINK-30254 can be tracked NOW for your location showing map with azimuth and elevation plus other details from your city location.







IsCatalogInMostPopularTable: catalog: 57533, numindb: 25
Update: records affected: 1



GetName: 57533 STARLINK-30254

Hit Count: updated at: Thu, 22 Feb 2024 00:52:07 GMT